Вернуться в каталог

THORAD DELTA 1 DEB

АктивенSSO
NORAD 8564·DEBRIS·🇺🇸 United States

Запущен Nov 15, 1974 с Vandenberg Space Force Base

Loading…

Ближайшие Пролёты (ближайшие 24 часа)

TLE

СвежийSource: Space-Track

Эпоха: Sep 12, 2026, 15:39 UTC

1 08564U 74089DB  26255.65268919  .00000216  00000-0  13132-2 0  9998
2 08564 101.2415 152.6582 0038959 193.3037 194.7735 12.69450661384841

Отслеживайте THORAD DELTA 1 DEB в реальном времени с AllMySat

Download on the App Store